Location: Spaichingen
(48.0400°N, 8.4300°E)
Time: 01:20:28
(UTC+01:00)

ISS - Visible Passes

Search period start: 24 January 2019 00:00
Search period end: 03 February 2019 00:00
Orbit: 404 x 410 km, 51.6° (Epoch: 24 January)

Date Brightness Start Highest point End Pass type
(mag) Time Alt. Az. Time Alt. Az. Time Alt. Az.
24 Jan -1.4 17:48:26 10° SSE 17:49:36 11° SE 17:50:45 10° ESE visible
24 Jan -2.9 19:22:19 10° SW 19:24:47 44° SSW 19:24:47 44° SSW visible
25 Jan -3.0 18:31:12 10° SW 18:34:17 37° SE 18:35:41 24° E visible
25 Jan -0.8 20:07:29 10° W 20:08:24 17° W 20:08:24 17° W visible
26 Jan -3.8 19:16:01 10° WSW 19:19:13 76° NW 19:19:13 76° NW visible
27 Jan -3.8 18:24:38 10° WSW 18:27:55 74° SSE 18:30:00 21° ENE visible
27 Jan -1.2 20:01:26 10° W 20:02:43 20° WNW 20:02:43 20° WNW visible
28 Jan -3.4 19:09:53 10° W 19:13:07 52° NNW 19:13:26 49° N visible
29 Jan -3.6 18:18:21 10° WSW 18:21:38 67° NNW 18:24:07 16° ENE visible
29 Jan -1.5 19:55:18 10° WNW 19:56:50 23° WNW 19:56:50 23° WNW visible
30 Jan -3.2 19:03:45 10° WNW 19:06:56 43° N 19:07:30 39° NNE visible
31 Jan -3.2 18:12:11 10° W 18:15:23 48° N 18:18:09 13° ENE visible
31 Jan -1.9 19:49:03 10° WNW 19:50:52 28° NW 19:50:52 28° NW visible
01 Feb -3.2 18:57:32 10° WNW 19:00:43 43° N 19:01:32 35° NE visible
01 Feb -0.2 20:34:09 10° WNW 20:34:14 11° WNW 20:34:14 11° WNW visible
02 Feb -3.1 18:05:58 10° WNW 18:09:08 42° N 18:12:12 11° ENE visible
02 Feb -2.5 19:42:40 10° WNW 19:44:55 39° NW 19:44:55 39° NW visible
